This is the latest recevied weather packets stored in our database for station/object KSUZ. If no packets are shown the sender has not sent any weather packets the latest 10 day(s).
| Time | Temp. | Humidity | Pressure | Rain* | Wind** | Luminosity | Snow |
|---|---|---|---|---|---|---|---|
| 1777906418 | 20° C | 60% | 1014.2 hPa | - | - | - | - |
| 1777905819 | 20° C | 60% | 1014.2 hPa | - | - | - | - |
| 1777905219 | 18.89° C | 68% | 1014.2 hPa | - | - | - | - |
| 1777904616 | 18.89° C | 68% | 1014.2 hPa | - | - | - | - |
| 1777904021 | 17.78° C | 67% | 1014.2 hPa | - | - | - | - |
| 1777903417 | 17.78° C | 67% | 1014.2 hPa | - | - | - | - |
| 1777902817 | 16.67° C | 72% | 1014.6 hPa | - | - | - | - |
| 1777902218 | 16.67° C | 72% | 1014.6 hPa | - | - | - | - |
| 1777901622 | 16.67° C | 72% | 1014.6 hPa | - | - | - | - |
| 1777901019 | 16.67° C | 72% | 1014.6 hPa | - | - | - | - |
| 1777900419 | 15.56° C | 77% | 1014.2 hPa | - | - | - | - |
| 1777899818 | 15.56° C | 77% | 1014.2 hPa | - | - | - | - |
| 1777899221 | 15° C | 82% | 1013.9 hPa | - | - | - | - |
| 1777898621 | 15° C | 82% | 1013.9 hPa | - | - | - | - |
| 1777898022 | 13.89° C | 87% | 1013.9 hPa | - | - | - | - |
| 1777897420 | 13.89° C | 87% | 1013.9 hPa | - | - | - | - |
| 1777896817 | 13.89° C | 87% | 1013.5 hPa | - | - | - | - |
| 1777896219 | 13.89° C | 87% | 1013.5 hPa | - | - | - | - |
| 1777895617 | 12.78° C | 93% | 1013.5 hPa | - | - | - | - |
| 1777895020 | 12.78° C | 93% | 1013.5 hPa | - | - | - | - |
| 1777894420 | 13.89° C | 87% | 1013.2 hPa | - | - | - | - |
| 1777893820 | 13.89° C | 87% | 1013.2 hPa | - | - | - | - |
| 1777893222 | 12.78° C | 93% | 1013.2 hPa | - | - | - | - |
| 1777892618 | 12.78° C | 93% | 1013.2 hPa | - | - | - | - |
| 1777892022 | 12.78° C | 93% | 1013.5 hPa | - | - | - | - |
* Rain since midnight (hover to see other rain measurements)
** Current wind speed in m/s (hover to see current wind gust speed)